Wind_Speed
37 39 40 42 43 44 45 47 48 48 49 49 50 52 55 59 63 65 67 67 69 70 70 71 71 72 72 71 71 71 71 70 70 71 70 70 70 70 70 72 72 74 75 75 76 78 79 82 83 86 87 87 87 85 85 84 85 87 86 82 78 73 68 66 69 71 69 72 73 74 74 66 66 73 76 73 72 73 67 64 66 63 62 59 54 53 55 55
39 40 41 43 44 45 46 48 49 49 50 50 51 52 55 58 61 65 67 68 70 71 72 73 74 75 75 74 74 75 75 74 74 73 72 72 72 72 73 73 73 74 75 76 77 77 78 80 83 85 87 88 88 87 88 87 87 87 85 83 78 72 69 70 73 72 71 74 74 74 75 68 66 74 75 70 71 70 65 63 65 64 62 59 55 54 56 56
40 41 43 44 45 46 47 48 49 50 50 50 51 52 54 57 60 63 66 68 70 72 73 75 76 77 78 78 77 78 78 78 77 75 75 75 75 75 75 75 75 75 76 77 78 79 79 80 82 84 85 88 88 89 90 90 89 87 86 84 76 72 73 73 75 74 74 76 75 75 76 70 68 74 73 70 70 67 65 65 65 64 63 60 56 55 57 57
42 43 44 45 46 47 48 49 49 49 50 50 51 52 54 56 59 62 65 68 70 72 74 76 78 80 81 81 81 81 82 83 80 78 79 78 77 78 78 78 78 78 78 78 78 80 80 81 82 83 84 86 88 90 92 92 89 88 88 83 76 75 76 75 75 77 77 78 76 76 76 71 70 75 74 70 69 67 65 66 66 66 64 59 57 57 57 57
44 45 46 46 47 48 48 48 48 47 47 47 49 50 53 55 58 61 63 66 69 72 75 77 79 81 83 84 84 84 86 87 82 81 83 83 82 82 81 81 81 81 81 80 80 80 81 83 83 83 84 85 87 90 91 91 90 90 90 83 78 78 78 77 78 80 80 79 79 78 75 72 72 75 75 70 68 68 67 67 69 67 63 59 57 58 57 58
45 46 47 47 48 48 47 46 45 44 44 45 46 48 50 53 56 59 62 66 69 72 74 77 80 82 85 86 87 87 89 90 84 84 88 87 86 86 85 85 84 84 84 83 83 82 82 84 84 84 85 85 86 88 88 90 92 92 90 85 81 79 80 82 82 83 82 80 81 78 74 73 74 74 74 72 68 68 69 69 69 65 61 59 58 59 58 57
46 47 47 48 48 47 45 43 41 40 40 40 42 44 47 50 54 58 62 66 70 73 76 78 81 84 87 88 90 90 91 92 87 88 92 90 90 90 90 89 88 87 86 86 86 85 85 85 85 85 86 86 86 86 86 90 94 93 89 86 84 82 83 85 85 85 83 81 81 77 72 74 76 73 74 73 67 67 71 70 66 62 61 61 57 57 58 57
47 48 49 49 47 45 43 40 37 35 35 36 39 42 45 49 53 58 63 68 72 75 78 80 83 86 89 90 92 93 94 93 92 93 95 94 94 94 94 93 92 92 90 89 89 88 88 87 86 86 87 87 87 87 87 90 93 91 88 86 86 86 87 87 86 86 84 82 82 78 72 73 75 75 74 73 68 68 73 68 62 61 61 61 55 54 56 55
48 50 51 50 47 44 40 36 33 32 33 35 39 42 47 52 57 63 68 72 74 77 80 82 85 88 90 93 95 97 97 96 97 98 99 99 99 99 98 97 97 96 94 93 92 92 91 90 89 89 88 88 89 89 89 90 89 87 86 87 88 89 89 89 88 86 84 84 83 77 74 74 76 76 73 72 69 69 72 66 61 62 62 62 59 56 57 55
50 52 55 54 49 43 39 35 33 33 35 38 42 46 52 58 63 67 71 74 76 78 81 84 87 89 92 95 98 101 101 100 102 102 103 104 104 104 103 102 101 100 99 97 96 95 94 94 92 92 91 90 89 89 90 89 85 84 86 87 89 90 91 91 90 87 85 85 81 77 77 77 78 77 71 71 70 67 71 66 61 62 60 61 61 58 57 56
52 54 57 57 52 44 40 37 36 37 39 42 46 51 57 62 66 69 71 73 75 77 80 82 85 87 91 94 98 102 102 102 104 106 107 108 109 109 108 107 106 105 103 101 100 99 98 97 95 94 92 91 89 88 90 88 85 85 86 86 87 90 92 92 90 87 86 85 80 78 79 80 81 76 69 71 70 68 72 65 60 63 58 58 60 58 57 55
55 56 59 60 56 48 43 41 40 42 44 47 51 56 61 65 67 69 70 71 72 74 75 77 79 82 85 89 95 97 97 99 102 105 107 109 111 112 112 112 111 109 108 106 104 102 101 100 98 96 95 93 91 91 92 89 87 88 86 84 85 89 93 91 88 87 87 85 80 80 82 82 79 72 69 72 72 72 71 62 60 64 61 58 58 58 57 55
57 58 60 62 61 54 47 45 45 46 47 50 54 58 62 66 67 68 68 68 68 69 70 71 73 75 77 82 88 89 89 91 94 97 101 105 108 111 113 115 114 113 112 110 108 106 105 103 101 100 99 96 94 95 93 88 88 88 87 86 85 88 91 89 87 87 89 86 83 84 83 80 74 70 73 74 73 74 68 62 63 65 64 60 56 56 56 55
59 60 62 63 64 59 53 48 48 48 50 52 56 60 63 65 66 66 65 64 63 63 64 65 67 69 71 75 82 82 81 83 85 88 92 96 101 104 109 113 116 116 115 114 112 109 108 107 105 103 101 98 97 97 92 88 88 88 88 87 85 86 87 85 86 87 89 87 86 87 82 77 73 74 77 75 75 75 66 64 67 65 64 60 56 56 55 55
61 62 63 64 66 63 58 52 50 50 51 54 56 60 62 64 64 63 61 60 59 59 60 61 63 65 66 70 76 75 73 76 78 81 84 87 91 96 100 106 112 116 117 117 115 113 111 110 107 106 105 102 100 98 92 90 90 89 90 87 84 83 83 83 84 86 88 88 89 88 81 75 74 76 78 76 77 75 66 66 69 66 64 61 60 58 55 55
63 64 65 67 68 67 63 56 52 51 52 54 57 59 61 62 61 60 58 57 56 57 57 58 60 62 64 67 71 70 68 68 70 73 77 81 85 89 93 98 103 109 114 117 117 116 114 112 110 109 108 104 102 99 95 93 93 91 89 86 82 82 81 82 83 83 86 89 91 87 79 76 77 79 80 78 79 74 67 68 70 67 64 63 63 60 57 56
65 66 68 70 71 70 66 60 55 52 52 54 56 58 59 59 58 56 55 55 55 55 55 55 57 61 63 64 67 69 66 64 64 66 69 74 80 83 87 92 96 100 106 113 116 117 116 115 113 111 110 107 104 102 99 96 93 90 87 83 81 82 82 83 82 82 84 88 90 84 79 80 82 81 80 80 79 73 69 70 71 67 65 65 63 61 59 56
67 68 71 73 74 73 69 63 57 54 53 54 55 57 57 56 54 52 52 54 53 52 53 54 56 60 61 61 64 67 65 63 64 65 64 67 73 77 81 86 91 94 98 105 110 115 118 117 116 114 113 110 107 104 99 93 89 85 83 81 82 83 84 84 83 82 82 85 87 84 82 83 84 81 81 84 78 72 71 73 72 69 67 66 64 61 59 56
70 71 74 76 77 75 71 66 60 55 53 54 55 55 55 53 52 50 51 53 52 50 52 53 55 60 58 56 59 62 61 63 65 64 61 60 63 69 76 81 85 89 93 97 103 109 115 118 119 117 115 111 107 103 96 89 87 86 85 85 85 85 86 84 84 82 80 82 85 84 82 84 85 83 86 87 77 69 71 74 74 70 68 67 63 61 58 55
72 74 77 79 79 77 74 68 62 57 54 55 55 55 54 51 49 48 48 52 51 49 52 52 52 57 58 52 51 54 58 61 63 62 59 56 56 61 69 77 82 85 89 93 97 103 109 115 118 117 114 110 106 101 96 93 94 93 93 92 89 87 86 85 84 83 79 79 82 82 82 85 87 87 89 86 76 69 71 75 74 70 67 66 62 61 59 56
75 77 79 81 82 80 76 70 63 58 56 56 56 55 53 50 48 47 47 49 48 46 49 51 49 51 55 52 46 46 52 57 59 58 57 56 56 57 62 71 78 82 86 90 94 99 104 108 111 113 112 110 108 105 102 101 100 98 96 93 90 87 86 85 84 85 80 76 79 79 81 86 87 89 89 84 77 72 74 77 73 69 68 66 63 61 59 58
77 79 81 83 84 82 78 72 65 59 57 57 57 55 52 50 48 46 46 48 47 42 43 47 46 45 47 48 45 41 44 51 54 54 54 56 56 57 58 65 73 78 82 88 91 94 98 100 101 105 109 112 112 110 107 105 103 100 96 93 91 87 86 86 85 86 81 75 78 79 80 84 85 88 89 84 78 75 78 80 74 70 69 67 65 63 60 58
79 81 84 86 86 84 80 74 66 61 60 59 58 55 52 50 48 45 45 46 46 42 40 42 44 44 43 43 42 39 39 44 50 51 51 53 55 55 56 60 68 75 80 85 88 89 92 93 95 100 108 115 116 114 110 107 105 102 98 94 92 88 86 86 85 86 81 73 76 79 80 83 85 88 89 83 79 78 80 81 76 72 70 68 66 64 61 58
81 83 86 89 89 86 81 75 67 63 62 61 60 57 54 51 48 46 45 45 44 42 39 39 41 43 43 42 39 37 36 38 44 48 48 50 51 52 53 56 64 72 76 81 84 86 86 88 91 97 106 114 117 116 113 110 108 104 99 95 93 89 86 86 84 85 81 75 75 80 81 83 84 85 86 82 80 81 81 80 75 73 71 69 67 64 61 58
83 85 88 91 91 87 82 75 69 65 64 63 62 59 55 52 49 47 47 45 43 40 39 38 38 39 40 40 38 36 35 35 38 42 45 47 47 49 52 54 60 67 73 78 81 84 83 83 90 97 103 108 113 116 115 112 109 105 99 96 93 90 87 86 86 85 83 77 75 80 81 80 80 81 83 81 80 82 82 79 75 72 71 70 68 66 62 58
84 87 90 92 91 88 83 76 69 66 65 65 64 60 56 53 50 49 48 46 41 39 38 37 36 36 36 35 35 35 33 33 35 37 40 43 44 47 50 52 57 63 71 76 80 83 81 82 91 97 98 102 107 112 114 113 111 105 99 96 94 92 89 87 86 84 82 77 75 80 82 78 78 79 79 80 79 81 81 78 75 72 70 69 67 65 62 59
86 89 92 93 92 88 83 76 71 68 67 67 65 62 58 55 52 50 49 46 41 37 37 37 35 34 33 31 30 31 32 32 33 33 36 40 42 45 48 51 56 62 70 75 79 80 78 82 91 94 94 98 103 108 112 112 111 106 100 98 96 92 89 86 86 83 80 78 79 83 83 80 78 75 76 79 79 80 80 77 74 72 70 68 66 64 61 59
88 91 93 94 92 88 83 77 72 69 68 68 66 63 60 57 54 52 51 47 41 36 37 37 35 33 31 28 26 27 29 30 30 31 33 36 39 42 46 50 54 59 67 72 74 74 76 81 87 89 91 95 99 104 109 112 110 106 102 100 97 92 88 85 85 83 81 82 84 84 83 80 75 72 74 77 77 78 78 75 73 71 69 68 66 62 61 59
90 93 94 94 93 89 84 77 73 70 69 69 68 65 62 58 54 53 51 48 42 38 36 36 34 32 29 27 24 23 25 27 27 29 31 32 35 38 43 47 52 56 62 66 67 69 74 79 83 86 88 92 96 101 107 111 110 106 103 101 98 94 91 88 86 85 84 85 85 83 81 77 72 71 73 73 72 72 73 73 72 71 69 67 65 63 62 60
91 94 94 94 92 89 84 79 74 72 71 70 69 66 63 60 55 53 51 48 44 40 37 35 34 31 28 25 23 22 22 24 25 26 28 29 32 34 38 44 48 51 56 60 62 67 73 77 81 83 84 87 93 98 105 109 108 107 105 102 100 96 93 90 88 89 88 86 83 81 78 74 72 72 70 67 66 67 69 71 71 70 68 66 65 64 63 61
92 94 95 94 92 88 84 79 76 74 72 71 69 67 64 60 56 53 52 48 45 42 39 36 32 30 27 24 22 21 20 21 22 24 25 26 28 31 34 39 44 47 50 53 58 66 72 76 78 80 82 85 90 95 101 106 108 108 106 105 102 98 95 93 91 93 90 83 79 78 76 75 72 68 64 62 63 65 66 67 67 66 66 66 66 65 64 62
92 95 95 94 92 89 84 80 77 75 73 71 70 68 65 61 56 54 53 49 46 44 42 37 31 27 25 23 22 20 19 20 20 21 22 23 25 27 30 35 39 43 45 49 57 63 68 72 74 78 81 83 87 92 99 107 110 109 108 107 104 100 98 95 95 93 84 76 76 77 75 74 68 64 63 62 61 62 63 64 64 64 65 65 65 65 64 64
92 95 96 94 92 89 85 81 78 77 74 72 71 68 65 61 59 57 55 51 48 45 43 39 32 26 23 21 20 19 17 18 18 19 20 21 22 24 28 32 35 38 42 47 52 56 62 68 72 77 80 81 85 91 99 107 110 109 109 106 103 101 99 96 94 86 76 74 77 76 74 71 66 65 64 60 59 61 62 62 62 63 63 62 63 64 64 65
93 95 96 95 92 89 85 81 79 78 76 73 71 68 66 63 60 58 56 52 50 47 44 39 33 27 23 20 18 17 16 15 16 17 18 19 20 22 25 29 32 35 38 42 44 49 58 64 68 72 76 78 83 90 97 104 107 107 106 103 101 99 95 89 83 77 74 75 76 75 73 70 66 65 62 58 58 61 60 59 60 62 62 60 61 62 62 62
93 95 95 95 93 89 86 81 80 79 77 74 71 67 66 64 59 57 55 50 48 47 44 38 33 29 24 21 17 15 14 13 14 14 15 16 18 20 23 26 29 31 34 38 42 48 55 61 65 70 73 75 81 88 94 100 104 105 104 101 98 95 88 83 78 76 76 76 75 74 71 68 67 64 62 59 58 59 58 57 58 58 57 58 60 60 59 57
92 95 95 94 92 89 86 82 80 80 78 74 71 68 67 64 60 58 54 49 45 44 41 36 31 28 24 21 17 14 12 11 12 12 13 15 16 18 21 24 26 28 32 37 42 47 53 59 63 67 71 75 80 86 90 95 101 104 103 101 96 92 87 84 82 81 80 78 76 73 70 70 68 64 62 58 56 58 57 56 57 56 54 56 56 55 55 53
93 95 94 93 91 89 86 83 81 81 79 75 72 71 70 67 62 58 55 49 45 43 40 34 30 27 23 19 16 13 11 10 10 10 11 13 15 17 19 22 24 27 31 36 40 46 52 58 61 63 68 72 78 83 88 95 102 103 101 98 94 91 90 87 85 85 83 79 75 72 71 70 65 62 61 56 53 56 56 55 56 55 53 53 52 50 49 48
93 95 94 93 91 89 86 83 81 81 80 77 74 71 69 66 62 58 54 49 45 42 39 33 29 27 23 19 15 12 10 9 9 9 9 11 13 15 18 20 23 27 30 34 38 44 51 57 61 64 67 72 77 81 88 98 104 100 96 94 93 93 92 90 88 85 80 77 74 71 70 68 64 62 59 53 53 57 56 55 54 53 51 50 50 49 47 45
93 94 94 93 91 89 86 83 81 81 80 78 74 70 69 67 62 58 55 50 44 41 38 33 29 27 24 20 16 12 10 8 8 7 8 9 11 14 16 20 22 26 29 33 37 42 49 55 59 63 68 73 79 83 89 97 101 98 97 97 96 94 91 88 85 81 77 75 73 70 69 67 64 61 58 54 56 59 57 55 54 51 49 48 49 49 46 44
92 94 94 93 91 89 86 83 81 80 80 78 75 71 69 68 63 58 55 50 44 39 36 33 30 29 26 21 17 13 10 8 6 5 6 8 11 13 16 19 22 25 28 31 36 41 48 53 58 63 68 73 79 83 88 94 98 100 101 101 100 98 94 88 83 79 77 75 72 70 69 66 63 61 58 57 59 60 58 56 54 52 50 49 49 46 44 42
91 93 94 93 91 89 86 84 81 81 80 78 75 70 67 66 63 58 54 51 46 41 36 32 30 30 27 22 18 15 11 8 4 2 4 7 10 13 17 20 22 25 29 31 35 41 48 54 58 63 67 71 76 82 88 94 99 102 101 100 100 97 92 87 82 79 77 73 70 69 67 64 63 62 59 58 60 60 57 55 54 53 51 49 45 42 42 42
92 93 94 93 92 89 86 83 80 79 78 76 73 68 65 64 62 58 54 52 48 43 37 31 28 28 26 23 19 16 12 8 4 2 5 7 10 14 18 22 24 26 29 34 38 44 50 55 58 61 65 70 76 83 90 95 99 102 101 98 96 92 86 82 79 76 73 70 68 68 66 65 65 63 59 58 60 59 57 56 54 53 52 49 44 42 42 43
92 93 93 93 92 89 86 83 81 78 77 75 73 68 64 62 60 57 54 53 49 44 38 32 29 29 28 25 20 16 12 8 4 2 6 9 12 16 20 24 27 28 30 35 42 47 52 56 59 62 67 72 77 83 89 95 99 101 100 97 93 89 84 80 77 74 72 70 69 68 67 67 66 62 59 59 61 60 58 57 56 54 52 49 46 44 42 41
91 93 93 93 91 88 84 82 81 79 77 76 74 71 65 61 60 56 53 53 50 45 39 34 31 31 29 25 21 17 13 8 4 3 7 11 13 17 20 24 28 31 34 37 43 49 53 57 60 64 68 74 80 85 90 95 98 99 99 97 92 88 84 82 79 77 74 71 70 68 66 65 64 62 61 62 64 63 60 59 58 55 51 48 45 43 41 39
90 92 92 92 90 87 83 80 79 79 77 75 74 71 66 62 61 58 54 53 50 45 40 35 32 31 29 25 21 16 12 9 5 4 7 11 14 17 20 23 26 30 34 38 42 48 54 57 60 63 67 71 77 82 87 91 96 98 99 96 92 87 84 83 81 79 76 72 69 69 67 65 64 63 64 65 65 62 60 59 58 54 51 49 46 45 43 42
90 91 91 90 89 85 81 78 77 77 76 74 71 69 66 62 61 58 54 52 50 45 40 35 33 31 27 23 19 15 12 8 7 7 8 10 14 16 19 22 24 27 31 36 41 45 49 53 56 59 63 67 71 75 78 83 90 95 95 92 88 85 83 81 79 77 74 71 69 69 67 67 67 65 65 66 64 61 57 57 56 53 51 50 48 48 46 44
89 90 90 89 88 84 79 76 75 74 73 71 69 68 65 61 59 57 53 50 48 45 40 35 32 30 27 22 18 14 11 7 7 10 11 11 13 16 17 19 22 25 29 34 38 41 43 47 51 55 59 65 71 74 77 83 89 91 89 87 87 86 83 80 76 72 70 69 69 69 67 68 67 66 66 65 63 61 57 56 54 51 50 49 48 47 45 43
87 89 89 88 87 84 79 75 74 73 73 71 68 66 63 59 57 56 52 47 46 44 40 34 30 28 25 21 17 13 9 6 8 11 14 14 14 16 18 19 21 23 27 31 36 40 42 44 47 52 58 64 70 75 80 86 89 89 89 89 88 86 82 79 75 72 70 69 69 69 67 68 68 67 67 66 64 61 59 56 53 50 49 48 47 47 45 46
87 89 88 87 86 83 78 74 73 73 72 70 67 65 62 58 56 55 51 47 44 42 38 33 28 26 23 19 15 12 8 8 9 10 14 17 16 16 19 21 23 25 28 32 37 41 45 46 48 54 60 66 69 72 78 84 86 88 89 88 85 81 78 76 74 73 72 71 71 72 70 70 69 68 67 66 64 61 59 56 53 51 50 48 47 48 48 50
86 88 87 85 84 81 76 73 71 71 71 69 67 65 62 58 55 53 51 47 44 41 37 31 26 23 21 17 14 12 8 9 10 9 14 18 18 18 19 21 25 28 31 35 39 42 45 49 53 57 60 63 65 70 76 82 86 87 86 83 81 80 78 75 73 70 69 69 70 70 68 67 68 67 66 64 62 60 57 55 52 51 52 50 49 50 52 53
85 87 86 83 81 79 75 71 69 68 69 68 66 64 62 59 54 52 50 46 43 42 39 32 25 21 19 16 14 12 8 10 12 9 11 16 18 20 21 22 24 28 32 37 40 42 43 47 52 57 60 62 66 71 76 81 84 85 83 82 80 78 75 73 70 68 68 68 68 65 63 64 65 65 63 61 60 60 57 55 54 52 52 52 51 52 54 55
85 85 84 81 78 76 74 71 68 66 67 66 64 62 60 58 54 50 49 46 41 39 39 34 26 22 19 17 14 13 9 9 13 11 10 12 16 20 23 24 25 28 32 36 40 42 43 47 52 57 60 64 69 74 78 80 82 82 80 79 77 74 72 70 69 68 69 69 68 65 64 64 64 64 62 60 60 59 57 56 55 54 53 53 52 53 54 52
Wind_Direction
294 293 293 292 292 291 290 289 287 284 282 278 274 269 264 260 255 252 251 251 251 251 251 250 250 249 248 247 247 246 245 244 243 243 242 241 240 240 240 240 239 238 237 236 236 235 234 233 233 233 233 232 232 232 233 232 233 233 233 232 230 229 230 231 232 232 231 233 234 237 238 234 234 237 236 236 237 239 240 240 243 243 243 245 244 246 248 249
298 296 295 294 293 293 292 290 288 286 282 278 274 269 264 260 256 253 251 251 251 251 251 251 251 250 249 248 247 247 246 245 244 243 242 242 241 240 240 240 240 239 238 237 236 236 235 234 233 233 232 232 232 232 232 232 232 233 233 232 229 228 229 230 231 231 231 232 234 235 236 233 233 237 238 237 237 240 241 241 243 244 243 244 244 245 247 249
304 302 299 298 296 295 294 292 290 286 282 278 273 268 264 260 257 254 252 251 250 250 250 250 250 250 250 248 247 247 246 245 244 244 243 242 242 241 240 239 239 239 238 238 237 236 235 235 234 233 232 232 232 231 232 232 231 232 233 232 229 227 228 229 231 231 231 232 233 235 236 233 234 238 238 237 238 239 241 242 243 244 244 243 244 245 247 249
311 308 305 303 301 299 297 294 291 287 282 277 273 268 264 260 257 255 254 252 251 250 250 250 250 250 249 248 247 247 247 246 244 244 244 243 242 241 240 239 239 238 238 237 237 237 236 235 235 234 233 232 231 231 231 231 231 231 232 231 228 228 227 228 230 231 231 231 231 234 235 233 234 239 239 238 239 239 240 242 242 243 244 243 245 246 247 248
318 314 310 308 305 303 301 297 293 287 282 277 272 268 265 261 259 257 255 254 253 252 251 250 250 250 249 249 248 247 247 246 244 244 244 242 242 241 241 240 239 238 237 237 236 236 236 235 235 234 234 232 232 231 231 231 231 231 231 229 227 228 227 227 229 230 230 231 231 232 234 234 234 238 239 238 239 240 239 240 242 242 245 245 246 247 247 247
323 319 316 313 310 308 304 299 294 288 282 277 273 270 267 264 262 260 258 256 254 253 252 251 251 250 250 249 248 247 247 247 245 244 244 243 242 241 241 240 239 238 237 237 236 236 236 235 235 234 234 233 233 232 231 232 231 230 230 228 227 227 227 227 228 229 229 230 231 231 233 234 234 237 239 238 237 241 240 240 242 244 246 246 246 247 246 247
328 325 322 320 316 312 308 301 295 288 283 278 275 272 270 267 265 263 262 259 257 255 253 252 251 250 250 249 249 248 247 247 245 244 244 243 242 241 241 240 239 239 238 237 236 235 235 235 235 234 234 234 233 233 231 231 231 229 228 228 227 226 226 227 228 229 229 230 232 231 231 234 235 236 239 238 236 240 242 240 243 245 244 245 245 246 246 246
334 332 330 327 322 316 310 302 296 289 285 281 278 275 273 270 268 265 263 260 257 256 254 253 252 251 251 250 250 249 247 247 246 244 244 243 243 242 241 240 239 239 238 237 236 235 235 234 234 234 234 234 233 233 232 231 231 230 228 227 227 227 226 227 227 228 229 229 231 230 230 233 235 235 237 239 236 238 242 241 241 243 243 243 243 244 245 245
340 340 339 335 327 319 310 302 296 290 286 283 280 278 275 272 268 265 263 261 260 259 258 257 256 255 254 253 252 250 249 248 246 245 244 244 243 242 241 240 239 239 238 237 236 236 235 234 233 233 233 233 233 232 232 231 232 231 228 227 226 226 226 227 227 228 228 229 230 229 230 233 235 234 235 238 236 237 242 242 240 241 243 243 242 243 245 245
344 345 345 341 331 319 310 302 295 290 286 283 281 278 275 272 269 268 267 267 266 265 264 262 261 259 257 255 254 252 251 249 247 246 244 244 243 243 242 241 240 239 238 236 236 235 235 234 233 233 233 233 233 233 233 233 232 231 229 227 226 226 226 226 227 227 228 229 229 229 230 232 234 234 233 237 237 237 241 241 240 241 243 244 243 243 244 244
346 348 348 344 335 321 310 302 295 290 287 284 282 280 277 275 273 273 273 272 271 269 267 264 262 260 258 256 254 253 252 250 249 247 245 244 243 242 242 241 240 239 238 236 235 235 234 234 233 233 232 232 233 233 234 233 232 231 230 228 227 227 226 226 226 227 228 229 228 228 230 231 233 233 233 237 238 237 240 240 240 241 240 243 243 242 243 244
347 348 348 346 339 326 312 303 296 292 290 288 286 284 282 281 280 279 278 276 274 271 269 266 263 261 258 256 254 253 252 250 249 248 246 245 243 242 241 241 240 239 238 237 235 234 234 234 233 232 232 231 231 231 232 231 230 230 229 228 227 228 227 225 226 227 228 228 227 228 229 230 232 233 234 237 238 237 239 239 240 240 238 240 243 242 242 242
347 348 347 345 341 332 318 306 300 296 294 293 291 290 288 287 286 285 284 281 278 274 271 268 264 262 259 257 255 254 253 251 249 247 246 245 244 242 241 240 240 239 238 237 235 234 233 233 233 232 231 230 230 230 231 231 231 231 229 228 227 228 228 226 225 226 228 227 226 228 229 230 231 232 233 234 236 237 237 237 238 239 239 239 240 240 240 240
347 347 346 344 341 335 325 312 304 300 298 297 296 295 293 292 292 290 288 285 281 276 273 269 266 263 260 258 257 256 254 252 250 248 246 245 244 242 240 239 239 238 237 237 236 234 233 232 232 231 231 230 230 230 230 230 231 231 230 228 227 229 229 227 225 225 227 227 226 228 229 229 230 231 232 233 235 236 234 235 236 237 239 238 238 239 239 240
346 346 345 344 342 337 330 319 309 304 302 301 300 299 298 297 296 294 291 287 283 278 274 271 268 266 263 261 260 259 256 253 251 249 247 245 243 242 241 239 237 237 236 236 235 234 232 232 231 230 231 230 229 230 228 228 229 230 230 229 227 229 229 228 225 225 227 227 226 227 227 228 230 231 232 232 234 234 232 235 236 236 237 237 238 239 239 241
346 346 346 345 342 339 333 324 315 308 305 305 304 303 302 301 300 297 294 289 285 281 277 274 271 269 267 264 264 263 260 256 252 249 247 245 243 241 240 239 237 236 235 235 234 234 233 231 230 230 230 230 229 229 228 227 227 228 229 229 228 228 229 228 226 224 226 227 226 226 225 227 229 230 231 231 232 233 231 234 237 236 236 237 238 239 239 241
346 346 346 346 343 340 335 328 319 312 309 308 307 307 306 304 302 299 296 291 288 285 281 278 275 271 268 266 264 264 263 259 255 250 245 242 241 240 238 238 238 236 234 234 234 233 232 231 230 229 229 229 228 228 227 226 226 227 229 229 228 228 228 228 226 224 225 227 227 225 223 225 228 229 231 231 231 231 231 233 236 236 235 236 237 238 238 240
346 347 347 346 344 340 336 330 323 316 312 311 311 310 308 307 304 301 298 293 291 289 286 282 277 272 269 267 264 264 265 263 259 254 248 242 238 237 237 237 237 236 234 233 233 232 231 231 230 228 228 228 227 228 227 227 228 228 229 229 229 228 228 228 227 224 224 227 226 224 222 224 227 229 231 231 229 230 232 232 234 234 234 236 236 237 237 238
347 347 347 346 344 341 337 332 326 319 316 315 315 314 312 310 308 305 302 297 295 293 289 285 281 278 273 267 265 265 265 263 261 258 254 247 240 236 235 235 235 235 235 233 232 231 230 230 229 228 228 227 227 227 228 227 227 227 226 226 226 227 227 227 227 225 223 226 226 223 222 224 226 228 230 231 227 229 233 233 233 233 234 235 236 237 237 237
347 348 347 347 345 342 338 334 328 323 321 321 320 319 317 315 312 310 305 300 299 297 292 287 284 282 279 273 267 265 263 260 260 259 257 252 245 237 232 232 233 233 233 233 231 230 229 228 228 228 227 227 227 226 226 225 225 224 223 223 223 224 225 225 226 225 222 224 226 223 222 223 225 226 229 230 226 226 232 233 232 232 233 235 235 236 237 235
347 348 348 347 346 342 339 335 331 327 325 325 325 324 322 319 316 312 306 300 299 297 292 289 285 282 281 279 271 264 261 260 259 258 256 253 248 241 233 229 230 231 231 231 230 229 228 228 227 227 226 226 225 224 224 224 224 224 223 223 223 223 224 224 225 226 221 221 226 223 222 223 224 226 228 229 226 225 231 233 231 231 233 234 234 235 235 235
346 347 348 348 346 343 340 337 333 330 330 329 328 328 326 324 320 314 309 304 302 300 295 292 289 284 281 279 276 268 261 259 258 256 253 251 247 242 234 228 227 228 228 229 230 229 228 227 226 225 225 224 224 223 222 222 223 224 223 222 223 222 224 224 224 226 221 218 224 224 222 224 224 226 227 227 225 225 230 233 230 230 232 232 233 233 234 235
346 347 348 348 347 344 341 339 336 334 333 333 332 332 331 328 322 317 314 311 310 308 302 297 295 292 286 282 278 272 263 257 257 255 251 248 246 241 235 229 225 225 226 228 229 228 227 226 225 223 223 222 222 222 221 221 222 223 222 221 222 221 222 224 223 226 222 217 223 225 223 223 223 224 225 225 225 225 229 232 230 230 232 232 232 233 233 235
346 348 349 349 347 344 342 341 339 337 337 336 336 336 334 331 326 323 321 318 317 314 308 302 298 295 291 287 283 276 267 258 255 254 251 248 245 242 237 230 225 223 224 226 227 228 226 224 223 221 221 221 220 221 220 220 221 222 221 220 221 220 221 223 222 224 223 216 220 226 224 223 224 225 225 223 224 225 228 231 230 230 232 233 233 234 234 235
346 348 350 349 347 345 344 342 341 340 340 340 339 338 337 334 331 330 327 324 322 319 313 306 300 295 292 289 286 279 271 261 254 251 250 247 244 241 236 230 225 222 222 224 224 226 224 221 221 221 220 219 219 219 219 219 220 221 220 219 220 219 219 222 222 222 222 216 218 226 226 224 225 225 225 223 223 226 228 229 230 230 232 233 234 234 235 235
347 349 350 349 347 345 345 344 344 343 343 342 341 340 339 338 336 334 331 329 327 322 317 311 305 299 294 289 285 280 274 265 257 250 247 245 242 239 235 229 225 222 220 221 222 223 220 217 219 220 218 217 217 217 218 218 219 219 219 219 219 218 218 220 221 221 221 217 216 225 227 224 224 224 224 224 223 226 228 228 229 229 231 233 234 234 235 235
349 350 350 348 347 346 346 346 346 346 346 345 344 342 342 342 340 337 335 333 330 327 322 317 312 305 298 292 285 280 274 267 260 253 246 242 239 237 234 229 225 222 220 220 221 221 218 216 219 219 216 216 215 215 216 216 218 217 217 217 218 218 217 219 221 220 220 218 216 222 225 223 223 223 223 224 222 224 227 228 229 229 231 232 233 234 234 235
350 350 350 348 347 346 347 348 347 348 348 347 345 344 344 344 342 340 338 335 333 332 329 323 317 311 303 297 289 279 274 268 262 255 248 242 238 235 233 229 226 224 222 221 221 219 218 217 219 218 215 214 213 213 213 214 216 215 215 216 216 216 216 217 220 220 218 218 217 219 223 223 222 222 223 224 222 224 226 227 228 229 230 232 233 233 233 234
351 350 349 348 347 347 348 349 349 350 350 349 347 346 346 345 344 343 340 338 337 336 334 329 322 315 308 302 294 283 274 270 264 257 250 245 240 234 231 230 227 225 223 223 220 218 218 217 217 218 215 213 212 211 211 212 213 213 213 215 215 214 215 215 217 219 217 218 218 218 222 223 222 223 224 224 224 224 227 227 228 229 229 230 232 232 232 233
351 350 349 348 348 348 349 350 351 352 352 351 349 347 347 346 345 345 342 342 341 338 337 334 326 318 314 308 300 289 278 271 266 259 252 246 242 235 230 228 228 226 224 222 220 218 218 217 216 216 215 212 211 209 209 210 210 211 211 213 213 213 213 213 215 218 216 216 217 218 220 222 223 223 224 224 224 225 226 227 228 229 229 230 231 231 232 232
352 350 349 348 348 349 350 351 352 354 354 352 350 349 348 347 346 346 345 345 344 341 340 338 330 322 318 313 304 296 285 275 268 261 256 248 243 238 231 228 227 226 224 221 218 217 216 215 214 214 213 211 210 208 207 208 209 210 210 211 212 211 212 212 214 217 216 214 216 218 218 221 222 223 223 223 223 224 225 226 227 228 229 230 231 232 232 233
352 350 349 348 349 349 351 353 354 355 355 353 352 350 349 349 348 348 348 347 346 345 342 339 334 325 320 316 309 301 290 279 271 263 258 251 245 239 233 229 226 224 223 219 217 216 214 214 212 211 211 210 208 206 205 206 207 208 209 210 210 210 211 211 213 216 215 213 216 218 218 220 221 222 223 221 222 224 225 225 226 226 228 228 229 231 232 233
352 351 349 349 349 350 352 354 355 356 355 354 353 350 349 351 351 350 349 348 348 347 343 340 337 330 324 320 313 305 294 282 273 264 258 251 245 238 233 229 225 222 220 218 217 214 212 212 210 209 209 207 206 205 204 204 205 206 208 209 210 210 210 211 213 214 214 213 216 218 218 218 218 220 222 220 221 224 224 224 225 225 227 227 227 229 230 231
352 351 349 349 350 351 353 355 357 356 356 355 353 351 351 352 353 352 351 350 348 346 344 341 339 336 332 328 319 308 296 283 273 264 256 250 242 236 230 227 223 220 217 216 215 212 211 211 209 208 208 205 203 203 204 203 204 205 207 208 209 211 211 212 213 213 214 215 216 217 217 217 217 220 221 218 220 223 223 224 225 225 227 227 227 228 229 232
352 351 349 349 351 352 353 355 357 357 357 356 354 352 352 353 354 353 352 352 349 346 343 341 340 340 338 333 324 312 300 287 275 265 256 248 239 232 227 223 220 216 213 212 209 208 208 209 207 207 206 204 202 202 203 203 203 204 206 206 209 210 210 211 211 211 213 214 215 216 216 215 216 218 219 217 218 222 222 222 225 225 226 227 228 230 232 235
352 351 350 349 351 352 353 356 358 358 357 356 354 354 353 353 355 354 353 353 351 347 343 342 344 345 342 337 329 318 306 292 277 264 253 243 235 228 222 218 215 211 208 207 205 204 204 205 205 205 204 202 201 201 201 201 202 203 204 205 206 208 208 208 209 209 211 212 213 214 214 215 215 216 218 216 217 222 221 221 224 224 224 226 229 231 233 235
351 351 350 350 351 352 353 356 358 358 357 356 356 355 355 354 354 355 354 354 353 348 345 347 350 350 347 341 334 325 316 301 280 262 248 238 229 222 217 212 209 206 204 204 202 200 200 202 203 202 202 201 200 200 198 199 202 203 202 203 204 207 207 207 208 209 209 211 211 212 214 214 214 215 218 215 217 222 222 222 224 224 224 226 228 229 230 232
350 350 350 350 351 352 354 356 359 359 357 357 358 357 355 353 353 354 355 355 355 350 347 350 355 354 352 347 341 334 326 310 286 264 246 234 224 216 209 205 202 200 199 200 200 198 197 198 199 199 199 198 199 199 196 197 200 201 200 202 204 207 207 207 207 208 208 210 210 211 213 213 212 214 216 214 216 221 221 221 223 224 225 226 227 228 228 228
349 350 350 350 351 352 354 356 359 360 358 358 358 357 355 353 354 355 355 356 356 353 349 353 359 360 357 353 347 342 336 319 291 267 245 228 216 209 202 198 196 195 194 195 195 196 196 196 197 197 196 195 196 197 196 196 198 198 199 201 203 206 208 208 208 207 208 210 210 210 212 211 210 213 214 211 215 219 219 219 221 222 223 223 224 225 225 225
349 349 350 350 351 351 353 356 359 0 359 358 358 357 356 354 353 355 356 356 357 356 354 356 2 4 1 357 354 350 343 325 295 266 242 223 206 198 195 192 190 189 190 191 190 192 193 194 195 195 195 194 194 194 195 196 196 196 198 200 202 204 205 206 207 206 207 209 209 210 212 210 209 211 212 211 214 218 217 217 218 218 218 220 222 222 223 223
348 348 349 350 350 351 353 356 359 0 360 358 358 358 357 355 353 354 356 357 358 358 357 0 6 6 2 1 1 358 350 335 305 244 210 208 197 189 186 184 184 185 185 184 186 188 190 192 195 194 193 194 192 191 194 195 195 196 198 200 202 203 204 204 204 204 206 207 207 210 211 210 209 210 211 212 216 218 217 217 218 217 217 218 217 218 220 221
348 348 349 350 350 351 353 355 358 0 0 358 357 357 357 356 354 354 356 358 359 358 357 1 9 11 7 5 6 3 358 351 333 198 171 181 184 181 180 178 178 181 182 181 182 185 188 190 193 193 192 192 192 191 192 194 195 195 198 201 202 203 203 204 204 204 204 205 207 209 210 209 209 209 210 213 217 218 217 218 218 218 217 216 214 212 214 217
347 348 349 350 350 351 352 354 356 359 360 359 357 357 358 358 356 355 357 359 0 359 358 0 10 15 12 9 8 8 6 7 7 146 155 163 173 175 176 176 175 176 181 182 181 182 186 188 190 192 191 190 191 191 191 193 194 195 196 199 201 201 202 203 204 203 203 204 206 208 209 209 208 207 209 213 216 217 216 217 218 217 216 215 213 213 213 216
347 347 348 349 350 351 351 353 355 357 359 359 358 357 358 358 357 357 358 360 0 0 360 2 10 15 13 9 9 11 12 17 35 125 152 156 165 171 173 176 177 176 178 183 183 182 184 188 189 190 191 190 190 191 191 192 193 194 196 197 199 200 201 202 202 202 202 203 205 207 208 210 208 207 209 213 216 215 214 216 217 216 215 214 213 214 214 214
347 347 348 349 349 350 350 352 355 356 358 359 358 357 357 358 359 358 359 360 0 1 1 4 10 14 12 9 9 14 19 28 57 101 142 152 158 166 171 176 179 179 178 181 185 184 185 188 189 190 191 191 191 191 192 191 191 194 196 196 196 198 200 202 202 200 200 201 204 206 207 208 208 208 210 214 216 216 215 217 218 216 215 213 211 212 213 213
347 347 347 348 348 349 350 352 354 355 357 359 359 357 357 359 359 359 359 359 359 1 2 5 9 11 12 11 10 16 25 37 70 98 123 144 153 161 169 174 178 180 179 180 185 187 187 188 189 190 189 190 191 193 193 191 191 194 196 196 195 197 200 203 203 201 199 200 203 205 206 207 207 208 211 215 217 216 215 218 218 217 217 216 214 214 216 218
346 346 346 347 347 348 349 351 353 355 356 358 359 358 358 359 359 359 359 360 360 360 2 5 8 9 10 14 16 19 27 47 83 104 116 132 146 154 163 169 173 177 179 180 183 186 188 188 188 189 189 188 190 192 191 191 192 193 195 196 196 197 199 201 202 201 200 201 204 205 206 208 207 208 211 215 217 216 215 217 217 216 218 218 217 217 217 220
345 345 346 346 346 347 349 350 352 354 355 357 358 358 358 359 359 359 359 360 1 1 0 3 8 9 7 11 19 21 26 58 92 115 123 127 138 148 156 162 167 172 175 178 180 182 186 188 187 187 188 189 191 190 189 189 191 191 193 196 197 198 199 199 199 198 199 202 205 206 206 208 208 208 211 214 216 215 215 217 216 214 215 217 217 217 218 223
345 345 345 346 345 346 348 349 351 353 354 356 357 358 358 359 359 359 359 360 1 3 2 0 4 10 9 9 20 24 33 68 90 118 127 126 133 146 155 159 162 165 170 174 179 181 183 185 186 187 188 190 191 190 188 188 190 191 193 195 196 197 199 199 198 198 198 201 204 206 206 208 208 208 211 214 216 216 215 217 217 216 216 216 216 216 218 224
344 343 344 345 345 345 347 348 350 352 352 354 356 357 358 359 360 359 360 0 0 2 4 2 4 11 13 14 24 29 46 79 90 115 128 130 137 148 154 159 161 164 168 174 180 184 184 183 185 187 188 190 190 189 188 188 189 192 193 194 196 197 198 198 198 198 199 202 206 208 208 209 209 209 212 214 216 217 216 217 218 218 217 216 217 217 218 224
342 342 343 344 344 344 346 347 350 351 351 353 356 357 357 358 360 360 360 1 1 0 2 3 5 13 19 21 31 36 51 87 95 104 126 135 143 148 150 157 164 166 171 175 180 185 186 183 184 186 187 188 188 188 188 188 189 191 192 193 195 196 197 197 197 197 199 202 206 208 209 212 212 211 213 215 217 218 217 218 219 219 219 219 219 221 222 225
341 341 342 342 343 344 345 346 348 350 351 351 354 357 357 357 359 360 360 1 2 1 0 1 4 13 19 23 34 40 49 88 100 103 119 135 144 150 153 158 165 170 175 179 180 183 185 183 184 187 186 186 186 186 187 188 189 190 192 193 194 195 196 196 197 198 200 203 205 206 207 210 212 212 213 215 218 218 218 218 220 220 221 221 221 223 225 227
Height
10668 10665 10662 10659 10656 10653 10650 10647 10644 10641 10638 10635 10633 10631 10629 10628 10627 10626 10626 10627 10627 10628 10628 10628 10628 10629 10629 10631 10633 10633 10634 10636 10637 10638 10641 10644 10645 10647 10648 10650 10654 10657 10659 10661 10662 10666 10670 10673 10677 10678 10682 10686 10691 10698 10700 10704 10705 10705 10711 10722 10737 10749 10756 10757 10753 10754 10758 10755 10754 10754 10758 10773 10775 10767 10769 10778 10783 10782 10790 10795 10794 10799 10800 10804 10811 10811 10810 10811
10663 10659 10656 10652 10649 10645 10642 10639 10636 10633 10630 10627 10624 10622 10621 10619 10618 10617 10617 10617 10617 10618 10618 10618 10618 10618 10619 10621 10624 10623 10624 10626 10627 10630 10634 10635 10637 10639 10641 10642 10645 10648 10651 10653 10655 10659 10662 10665 10667 10669 10674 10677 10683 10689 10690 10694 10696 10699 10707 10716 10732 10746 10750 10747 10743 10746 10749 10747 10748 10748 10752 10767 10768 10757 10762 10774 10776 10779 10787 10791 10789 10792 10796 10799 10805 10807 10806 10808
10656 10652 10649 10645 10641 10638 10634 10631 10627 10624 10621 10618 10615 10614 10612 10610 10609 10608 10608 10608 10608 10608 10608 10608 10607 10607 10607 10610 10613 10612 10613 10615 10617 10622 10625 10625 10628 10630 10632 10634 10636 10638 10642 10645 10647 10650 10654 10656 10657 10661 10665 10668 10674 10678 10680 10683 10688 10696 10701 10709 10730 10741 10738 10735 10736 10739 10740 10739 10742 10742 10747 10760 10760 10750 10757 10768 10771 10777 10783 10784 10786 10787 10789 10795 10801 10803 10803 10804
10650 10646 10641 10637 10633 10629 10626 10622 10618 10615 10612 10609 10607 10605 10603 10602 10601 10600 10599 10598 10598 10597 10597 10597 10596 10596 10595 10598 10601 10600 10601 10601 10607 10615 10614 10616 10619 10620 10622 10625 10626 10629 10632 10635 10639 10641 10644 10646 10648 10653 10656 10659 10664 10667 10669 10674 10683 10690 10692 10706 10726 10728 10725 10730 10731 10730 10730 10731 10735 10737 10741 10753 10753 10744 10752 10763 10767 10774 10778 10779 10780 10779 10783 10792 10798 10799 10799 10800
10643 10639 10634 10630 10625 10621 10617 10612 10609 10606 10603 10601 10598 10597 10595 10594 10593 10592 10591 10589 10589 10587 10587 10586 10585 10584 10582 10585 10587 10588 10588 10586 10599 10605 10601 10605 10608 10609 10612 10614 10617 10619 10622 10626 10629 10631 10634 10637 10640 10644 10647 10651 10655 10657 10663 10670 10677 10680 10683 10702 10714 10713 10718 10723 10720 10719 10721 10724 10728 10732 10738 10747 10745 10739 10748 10759 10764 10767 10772 10772 10771 10775 10782 10790 10793 10793 10795 10795
10637 10632 10627 10622 10617 10612 10608 10604 10600 10597 10595 10593 10591 10589 10588 10587 10585 10583 10582 10580 10578 10577 10576 10575 10574 10572 10570 10571 10572 10575 10574 10573 10589 10593 10586 10592 10596 10598 10601 10602 10606 10609 10612 10616 10618 10622 10624 10627 10631 10636 10639 10643 10646 10650 10659 10662 10664 10667 10677 10694 10702 10705 10711 10711 10709 10710 10713 10717 10721 10729 10736 10739 10736 10737 10744 10753 10760 10761 10764 10765 10767 10776 10782 10785 10787 10787 10789 10791
10631 10626 10620 10615 10610 10605 10600 10596 10593 10590 10588 10586 10584 10583 10581 10579 10577 10575 10572 10570 10567 10565 10565 10564 10562 10560 10558 10558 10558 10561 10561 10562 10576 10578 10572 10579 10582 10585 10588 10590 10594 10598 10603 10606 10609 10612 10614 10618 10622 10627 10630 10633 10637 10644 10651 10650 10649 10659 10673 10686 10692 10696 10699 10699 10700 10703 10708 10713 10717 10726 10731 10729 10730 10736 10738 10745 10757 10756 10753 10760 10768 10775 10777 10778 10781 10782 10784 10786
10625 10620 10614 10608 10603 10598 10594 10590 10587 10584 10582 10580 10578 10576 10574 10572 10569 10565 10561 10558 10555 10554 10553 10552 10550 10548 10545 10545 10544 10545 10547 10552 10560 10561 10560 10565 10568 10571 10574 10578 10582 10585 10591 10595 10598 10601 10605 10609 10613 10617 10620 10624 10631 10635 10639 10638 10640 10654 10669 10677 10681 10685 10688 10691 10693 10696 10704 10709 10711 10720 10725 10723 10726 10731 10733 10740 10752 10751 10745 10757 10767 10768 10771 10773 10776 10777 10779 10782
10620 10614 10608 10603 10598 10593 10589 10585 10582 10579 10577 10575 10572 10569 10566 10562 10558 10553 10549 10545 10544 10542 10540 10539 10537 10535 10532 10530 10529 10528 10533 10539 10542 10544 10547 10550 10553 10556 10559 10564 10569 10572 10578 10583 10587 10591 10595 10598 10602 10606 10609 10615 10620 10623 10626 10629 10637 10652 10663 10667 10670 10675 10679 10682 10685 10691 10698 10701 10706 10717 10720 10719 10720 10723 10730 10736 10745 10746 10742 10753 10763 10763 10766 10767 10771 10774 10774 10778
10614 10609 10603 10598 10593 10589 10585 10581 10578 10575 10571 10568 10565 10561 10556 10550 10545 10541 10537 10534 10533 10530 10526 10523 10520 10519 10517 10515 10512 10510 10515 10522 10523 10528 10531 10533 10537 10541 10545 10549 10554 10559 10564 10571 10575 10579 10583 10586 10591 10594 10599 10605 10610 10615 10619 10625 10637 10646 10651 10654 10659 10665 10669 10672 10678 10687 10692 10695 10704 10712 10713 10713 10710 10714 10728 10733 10739 10742 10738 10748 10758 10758 10762 10763 10766 10770 10770 10774
10609 10604 10599 10594 10589 10584 10580 10576 10572 10569 10565 10560 10555 10549 10543 10538 10533 10530 10526 10523 10519 10515 10511 10507 10504 10502 10499 10498 10494 10491 10496 10503 10506 10510 10513 10517 10521 10525 10530 10534 10539 10544 10550 10557 10562 10567 10571 10575 10580 10585 10592 10598 10604 10610 10612 10619 10631 10634 10639 10647 10653 10656 10658 10664 10674 10683 10686 10690 10701 10705 10703 10702 10700 10713 10731 10731 10733 10736 10733 10746 10753 10752 10758 10758 10761 10765 10766 10770
10604 10599 10594 10589 10584 10579 10574 10570 10566 10561 10556 10551 10545 10538 10531 10525 10521 10517 10513 10509 10504 10499 10495 10491 10488 10485 10482 10481 10473 10473 10480 10484 10488 10491 10495 10500 10504 10509 10515 10518 10524 10529 10535 10542 10548 10555 10559 10563 10570 10576 10580 10585 10594 10597 10597 10609 10619 10622 10630 10639 10644 10645 10649 10660 10672 10677 10679 10686 10696 10694 10690 10693 10702 10721 10731 10723 10724 10727 10731 10745 10747 10744 10750 10753 10755 10759 10762 10765
10599 10594 10589 10584 10579 10573 10568 10563 10558 10553 10547 10541 10534 10526 10519 10513 10508 10503 10497 10493 10488 10483 10479 10475 10473 10470 10468 10464 10455 10458 10466 10467 10471 10475 10478 10482 10486 10492 10498 10502 10508 10513 10519 10526 10534 10542 10547 10552 10559 10565 10567 10576 10584 10582 10589 10605 10610 10614 10623 10629 10635 10635 10643 10658 10667 10670 10671 10679 10686 10682 10683 10695 10710 10721 10717 10713 10716 10720 10730 10740 10737 10736 10741 10747 10750 10753 10757 10761
10595 10589 10584 10578 10573 10567 10561 10555 10550 10544 10538 10531 10523 10515 10507 10500 10494 10488 10482 10477 10472 10468 10464 10461 10459 10456 10455 10450 10440 10444 10452 10453 10457 10460 10462 10466 10469 10474 10479 10486 10491 10496 10503 10509 10517 10527 10534 10539 10546 10553 10557 10567 10571 10571 10587 10600 10601 10607 10612 10619 10628 10631 10642 10655 10660 10662 10663 10672 10676 10673 10682 10699 10709 10709 10704 10708 10709 10714 10728 10731 10728 10731 10735 10741 10744 10747 10753 10756
10590 10584 10578 10573 10566 10560 10554 10548 10541 10535 10529 10521 10513 10504 10495 10488 10481 10475 10469 10463 10458 10454 10452 10448 10446 10442 10441 10437 10429 10431 10439 10441 10444 10446 10448 10451 10455 10459 10463 10468 10473 10478 10486 10492 10501 10512 10519 10526 10534 10542 10546 10555 10560 10565 10582 10588 10591 10598 10602 10613 10625 10631 10641 10646 10650 10656 10658 10664 10666 10666 10684 10699 10702 10698 10696 10701 10702 10710 10724 10722 10720 10727 10731 10737 10739 10742 10749 10751
10584 10578 10572 10566 10560 10553 10546 10540 10533 10526 10519 10511 10503 10494 10485 10477 10469 10463 10456 10451 10446 10442 10440 10437 10434 10430 10428 10425 10418 10419 10424 10427 10430 10432 10434 10437 10439 10444 10448 10451 10456 10463 10470 10476 10486 10496 10504 10512 10521 10529 10534 10543 10551 10559 10571 10575 10580 10588 10594 10610 10623 10628 10634 10635 10642 10651 10651 10653 10655 10666 10687 10694 10689 10686 10688 10692 10696 10707 10718 10715 10715 10723 10728 10731 10734 10739 10744 10747
10579 10572 10566 10560 10552 10546 10538 10531 10524 10517 10510 10502 10493 10485 10476 10468 10460 10453 10445 10439 10435 10432 10429 10426 10423 10417 10413 10412 10409 10406 10408 10412 10416 10416 10419 10422 10423 10428 10434 10437 10441 10448 10455 10461 10470 10480 10489 10498 10508 10517 10522 10532 10542 10549 10556 10563 10573 10585 10596 10610 10619 10622 10624 10627 10634 10642 10643 10643 10651 10668 10683 10681 10676 10679 10682 10685 10693 10704 10711 10709 10710 10718 10723 10725 10728 10735 10739 10743
10573 10566 10559 10553 10545 10538 10530 10523 10516 10509 10502 10493 10484 10476 10467 10459 10451 10444 10436 10429 10427 10423 10418 10415 10410 10402 10400 10401 10398 10395 10397 10400 10400 10401 10404 10407 10410 10417 10423 10425 10429 10436 10442 10447 10455 10465 10474 10483 10493 10502 10507 10518 10530 10537 10548 10565 10580 10591 10600 10607 10610 10611 10613 10619 10626 10632 10637 10639 10648 10662 10670 10670 10671 10676 10675 10675 10691 10702 10703 10703 10704 10711 10716 10719 10724 10730 10735 10741
10566 10560 10553 10546 10538 10530 10522 10514 10507 10500 10492 10484 10475 10467 10458 10449 10442 10435 10426 10418 10417 10414 10408 10404 10397 10388 10387 10391 10388 10386 10389 10388 10385 10387 10391 10396 10401 10406 10410 10413 10417 10423 10428 10434 10443 10450 10458 10467 10476 10485 10496 10511 10525 10536 10555 10573 10580 10583 10588 10590 10593 10597 10602 10612 10617 10623 10633 10635 10640 10653 10662 10664 10665 10668 10663 10668 10691 10699 10694 10695 10698 10705 10711 10714 10721 10726 10732 10739
10560 10553 10546 10538 10531 10523 10514 10506 10498 10490 10482 10474 10465 10456 10448 10440 10432 10426 10418 10409 10407 10404 10395 10392 10389 10378 10373 10378 10381 10378 10377 10376 10373 10375 10380 10385 10390 10393 10396 10400 10404 10409 10415 10421 10428 10434 10441 10449 10459 10473 10491 10509 10523 10537 10552 10560 10559 10561 10566 10570 10578 10586 10594 10605 10609 10614 10626 10631 10635 10648 10655 10654 10655 10656 10655 10666 10688 10691 10685 10686 10692 10702 10706 10711 10718 10722 10728 10733
10553 10546 10538 10531 10523 10515 10506 10497 10488 10481 10473 10464 10456 10447 10438 10430 10423 10417 10410 10402 10399 10396 10386 10380 10379 10372 10363 10364 10369 10370 10366 10364 10364 10366 10370 10373 10376 10379 10383 10388 10392 10397 10403 10407 10412 10419 10425 10434 10448 10466 10486 10503 10514 10524 10534 10538 10541 10547 10556 10565 10574 10582 10589 10598 10602 10606 10619 10627 10630 10639 10643 10642 10647 10649 10652 10665 10680 10683 10678 10679 10689 10698 10702 10707 10713 10717 10722 10727
10547 10539 10531 10523 10516 10507 10498 10489 10480 10471 10463 10455 10447 10438 10429 10421 10414 10408 10401 10393 10389 10387 10379 10371 10367 10364 10358 10354 10356 10360 10358 10354 10354 10356 10359 10361 10363 10366 10370 10375 10380 10386 10390 10393 10398 10406 10415 10427 10444 10462 10479 10490 10496 10506 10516 10524 10531 10539 10550 10560 10567 10577 10584 10589 10595 10599 10612 10624 10624 10629 10634 10635 10642 10643 10647 10660 10672 10677 10672 10672 10685 10693 10696 10702 10706 10711 10717 10722
10541 10533 10524 10516 10508 10499 10490 10480 10471 10463 10454 10446 10438 10429 10421 10413 10406 10399 10392 10384 10378 10375 10370 10363 10358 10353 10350 10346 10346 10349 10349 10347 10345 10346 10349 10350 10351 10354 10359 10365 10370 10374 10378 10382 10388 10397 10407 10421 10439 10454 10462 10468 10478 10490 10503 10513 10520 10528 10541 10552 10561 10572 10577 10582 10592 10595 10607 10622 10619 10619 10625 10627 10632 10634 10641 10656 10666 10669 10665 10667 10681 10688 10691 10697 10701 10708 10714 10719
10535 10527 10518 10509 10500 10492 10482 10472 10463 10455 10447 10438 10429 10421 10413 10406 10398 10390 10383 10377 10370 10365 10361 10356 10351 10346 10342 10339 10338 10339 10339 10339 10337 10337 10339 10341 10344 10346 10350 10355 10358 10363 10369 10374 10380 10387 10399 10417 10430 10437 10440 10448 10463 10477 10492 10502 10509 10520 10534 10546 10555 10566 10572 10577 10586 10589 10600 10614 10612 10609 10615 10619 10626 10632 10641 10653 10659 10660 10661 10665 10677 10684 10688 10693 10699 10705 10711 10718
10530 10521 10512 10503 10494 10485 10475 10465 10456 10448 10439 10430 10421 10413 10406 10398 10390 10383 10375 10369 10364 10357 10353 10348 10344 10340 10336 10333 10331 10330 10330 10331 10330 10331 10332 10333 10337 10338 10341 10345 10348 10355 10361 10365 10371 10377 10392 10411 10415 10416 10423 10436 10452 10466 10480 10492 10501 10514 10529 10541 10550 10559 10567 10570 10575 10582 10591 10604 10608 10604 10609 10618 10626 10631 10638 10647 10652 10654 10657 10663 10673 10680 10683 10689 10696 10701 10708 10714
10525 10516 10508 10499 10489 10479 10470 10460 10450 10441 10432 10423 10414 10406 10399 10391 10383 10376 10368 10362 10357 10351 10346 10341 10337 10333 10330 10327 10325 10323 10323 10322 10323 10324 10325 10326 10329 10330 10333 10338 10341 10346 10351 10355 10360 10365 10382 10398 10395 10397 10413 10427 10442 10456 10470 10484 10493 10508 10525 10537 10543 10550 10558 10562 10568 10578 10587 10600 10606 10599 10602 10614 10619 10625 10633 10641 10648 10650 10653 10660 10668 10674 10679 10685 10691 10697 10704 10709
10520 10512 10504 10495 10486 10475 10465 10455 10445 10436 10427 10417 10408 10400 10393 10385 10377 10370 10363 10357 10351 10346 10340 10335 10331 10327 10324 10322 10319 10317 10316 10315 10315 10317 10318 10320 10322 10323 10326 10330 10334 10337 10341 10345 10350 10358 10376 10385 10380 10388 10406 10418 10431 10446 10461 10475 10485 10502 10520 10527 10534 10544 10554 10560 10564 10574 10585 10593 10593 10587 10594 10604 10610 10621 10629 10634 10641 10644 10648 10657 10664 10669 10676 10681 10685 10693 10699 10703
10516 10507 10500 10491 10482 10472 10461 10451 10441 10432 10422 10412 10403 10395 10387 10379 10372 10364 10357 10351 10346 10340 10335 10329 10325 10321 10318 10316 10314 10312 10310 10309 10309 10310 10311 10313 10315 10317 10319 10323 10327 10330 10334 10339 10347 10360 10371 10374 10374 10385 10398 10408 10422 10437 10453 10466 10478 10497 10513 10518 10528 10539 10548 10556 10560 10568 10577 10577 10577 10582 10589 10597 10608 10620 10624 10627 10636 10641 10647 10655 10660 10666 10672 10676 10682 10688 10693 10696
10512 10504 10496 10487 10477 10467 10457 10447 10438 10428 10418 10408 10398 10390 10382 10375 10368 10361 10353 10346 10340 10335 10330 10325 10320 10316 10313 10310 10308 10307 10305 10304 10304 10304 10304 10306 10309 10311 10313 10317 10321 10325 10330 10336 10347 10357 10361 10364 10371 10379 10390 10402 10416 10431 10444 10456 10472 10490 10502 10510 10519 10529 10538 10546 10550 10556 10563 10563 10571 10582 10587 10597 10611 10616 10617 10625 10636 10643 10647 10652 10655 10660 10666 10672 10677 10682 10686 10689
10510 10501 10492 10484 10474 10463 10452 10443 10433 10423 10414 10405 10395 10386 10378 10370 10364 10357 10350 10342 10335 10329 10325 10321 10316 10312 10309 10306 10304 10302 10301 10300 10299 10299 10299 10301 10303 10305 10309 10311 10315 10320 10325 10332 10343 10348 10349 10355 10363 10371 10385 10399 10410 10423 10435 10449 10466 10480 10491 10500 10509 10520 10529 10536 10541 10545 10548 10556 10570 10582 10589 10599 10606 10608 10617 10628 10636 10640 10642 10645 10651 10656 10662 10667 10671 10675 10680 10684
10507 10498 10489 10481 10471 10461 10450 10440 10430 10420 10411 10402 10393 10383 10375 10368 10360 10353 10346 10339 10333 10326 10321 10317 10313 10308 10305 10302 10300 10298 10297 10297 10296 10295 10295 10297 10299 10301 10304 10307 10311 10315 10320 10328 10334 10337 10339 10347 10356 10367 10380 10392 10402 10415 10430 10446 10459 10469 10480 10489 10498 10510 10518 10526 10531 10529 10538 10559 10573 10582 10589 10593 10599 10608 10619 10626 10630 10632 10635 10641 10647 10652 10657 10662 10666 10670 10675 10678
10504 10495 10486 10477 10468 10457 10447 10437 10426 10417 10409 10400 10390 10381 10373 10365 10356 10349 10342 10336 10330 10323 10318 10314 10310 10306 10302 10299 10297 10295 10294 10293 10293 10292 10293 10294 10295 10298 10300 10303 10307 10311 10316 10321 10323 10327 10335 10344 10354 10364 10373 10384 10397 10410 10423 10435 10446 10458 10470 10479 10489 10499 10507 10514 10517 10522 10546 10571 10576 10579 10585 10590 10601 10611 10614 10620 10625 10628 10632 10637 10641 10645 10649 10654 10659 10665 10669 10672
10502 10492 10483 10474 10465 10454 10444 10433 10423 10415 10407 10397 10388 10379 10370 10362 10353 10345 10338 10332 10325 10320 10316 10311 10307 10303 10300 10296 10294 10293 10292 10290 10290 10290 10290 10291 10292 10295 10297 10299 10303 10307 10310 10314 10318 10326 10334 10339 10347 10356 10364 10377 10391 10403 10413 10423 10435 10449 10460 10472 10484 10492 10499 10508 10518 10538 10562 10571 10569 10574 10581 10589 10600 10604 10606 10616 10622 10623 10627 10631 10635 10640 10643 10648 10654 10658 10661 10664
10500 10490 10480 10471 10462 10451 10441 10431 10422 10413 10404 10395 10387 10378 10368 10360 10352 10345 10338 10331 10323 10318 10313 10309 10304 10300 10297 10294 10292 10290 10289 10288 10287 10287 10288 10288 10290 10292 10294 10296 10299 10303 10307 10312 10319 10327 10332 10337 10346 10354 10363 10375 10386 10397 10408 10419 10434 10447 10459 10475 10485 10492 10505 10520 10537 10554 10563 10563 10565 10570 10577 10588 10597 10599 10604 10614 10616 10617 10622 10627 10631 10635 10639 10644 10648 10652 10656 10661
10498 10489 10478 10469 10459 10449 10439 10430 10421 10412 10403 10394 10386 10377 10368 10360 10353 10345 10339 10332 10325 10318 10312 10308 10303 10298 10295 10292 10291 10289 10287 10286 10285 10285 10285 10286 10287 10289 10291 10294 10296 10300 10305 10310 10316 10321 10327 10335 10344 10352 10361 10373 10384 10395 10406 10419 10433 10446 10460 10474 10484 10496 10514 10529 10540 10549 10551 10554 10558 10564 10575 10586 10591 10594 10601 10608 10611 10613 10618 10623 10626 10631 10636 10640 10644 10650 10655 10659
10497 10488 10478 10467 10458 10449 10439 10429 10420 10410 10402 10394 10385 10375 10366 10358 10351 10344 10338 10332 10326 10319 10313 10308 10302 10298 10295 10292 10290 10288 10286 10285 10284 10284 10284 10284 10285 10287 10289 10291 10294 10298 10302 10306 10311 10317 10324 10333 10340 10348 10358 10369 10381 10391 10404 10420 10432 10440 10453 10467 10482 10498 10511 10519 10527 10532 10536 10543 10551 10563 10574 10580 10584 10591 10596 10603 10609 10610 10615 10620 10623 10628 10632 10636 10642 10649 10653 10657
10494 10486 10477 10467 10458 10448 10438 10428 10418 10409 10401 10392 10381 10371 10362 10356 10350 10344 10338 10331 10325 10319 10314 10308 10303 10298 10295 10292 10289 10288 10286 10285 10284 10283 10283 10283 10284 10286 10287 10290 10293 10296 10300 10304 10309 10315 10322 10330 10338 10348 10358 10369 10379 10388 10403 10419 10427 10435 10451 10470 10486 10495 10501 10509 10517 10522 10529 10540 10551 10562 10569 10574 10584 10590 10593 10603 10608 10608 10612 10617 10619 10624 10629 10634 10641 10645 10649 10654
10492 10484 10475 10466 10456 10447 10437 10427 10418 10409 10400 10390 10380 10372 10365 10359 10352 10345 10338 10331 10325 10319 10314 10308 10303 10299 10295 10292 10289 10287 10286 10284 10284 10283 10283 10283 10284 10285 10287 10290 10292 10295 10299 10303 10309 10314 10320 10326 10335 10344 10354 10366 10377 10387 10399 10408 10417 10436 10458 10474 10482 10485 10491 10500 10508 10517 10530 10540 10549 10558 10565 10573 10582 10586 10592 10602 10604 10603 10608 10613 10616 10622 10627 10633 10638 10641 10645 10650
10490 10482 10474 10464 10455 10446 10438 10428 10419 10410 10400 10390 10382 10374 10365 10358 10351 10344 10337 10331 10326 10320 10314 10308 10303 10299 10295 10292 10290 10288 10286 10285 10284 10284 10283 10284 10285 10286 10287 10290 10292 10295 10299 10303 10309 10315 10321 10327 10334 10342 10351 10360 10370 10382 10394 10402 10416 10437 10452 10461 10470 10478 10489 10500 10510 10523 10533 10540 10549 10557 10562 10570 10578 10583 10590 10596 10596 10597 10603 10608 10612 10618 10624 10629 10632 10635 10641 10646
10489 10481 10472 10463 10454 10445 10437 10428 10418 10410 10400 10390 10382 10373 10365 10357 10351 10346 10339 10333 10327 10321 10315 10309 10304 10300 10297 10294 10291 10288 10287 10286 10285 10284 10284 10285 10285 10287 10288 10290 10293 10296 10300 10304 10310 10315 10322 10328 10334 10341 10348 10356 10365 10380 10393 10403 10416 10430 10439 10448 10457 10467 10480 10495 10510 10523 10530 10537 10548 10555 10559 10568 10576 10580 10585 10590 10590 10592 10598 10603 10607 10613 10618 10622 10626 10632 10637 10641
10487 10479 10470 10462 10452 10442 10434 10426 10417 10409 10401 10392 10383 10376 10369 10362 10353 10346 10340 10333 10327 10321 10316 10311 10306 10302 10298 10295 10292 10290 10288 10287 10286 10285 10285 10286 10287 10288 10290 10292 10295 10298 10301 10306 10311 10316 10322 10328 10334 10340 10349 10358 10369 10380 10392 10403 10414 10427 10438 10448 10455 10465 10480 10494 10506 10517 10526 10537 10546 10552 10558 10567 10571 10575 10581 10585 10586 10589 10596 10600 10603 10609 10614 10618 10625 10630 10633 10636
10483 10476 10469 10460 10450 10441 10432 10425 10419 10412 10404 10396 10388 10380 10373 10364 10355 10348 10341 10334 10327 10322 10317 10313 10308 10303 10300 10297 10293 10291 10290 10289 10288 10287 10286 10287 10289 10290 10291 10293 10295 10299 10303 10306 10310 10315 10321 10327 10335 10343 10352 10362 10371 10377 10387 10401 10413 10425 10438 10450 10461 10475 10489 10500 10510 10519 10528 10537 10544 10549 10556 10561 10566 10572 10578 10582 10583 10588 10593 10596 10601 10606 10611 10616 10622 10626 10629 10633
10482 10474 10467 10459 10450 10440 10431 10423 10417 10412 10406 10397 10389 10381 10374 10366 10358 10350 10342 10335 10329 10324 10319 10314 10309 10304 10301 10299 10296 10293 10292 10290 10290 10289 10288 10289 10291 10292 10293 10295 10296 10300 10304 10308 10310 10314 10321 10327 10335 10343 10351 10360 10369 10378 10388 10399 10411 10423 10435 10448 10462 10477 10490 10500 10510 10519 10527 10533 10539 10545 10551 10556 10561 10569 10575 10577 10578 10582 10587 10591 10596 10601 10607 10613 10619 10623 10628 10632
10482 10473 10465 10457 10449 10441 10433 10424 10416 10409 10403 10396 10387 10379 10373 10367 10360 10351 10344 10338 10331 10326 10321 10316 10310 10306 10303 10301 10298 10296 10294 10293 10292 10291 10291 10291 10292 10294 10296 10297 10299 10300 10304 10309 10312 10316 10322 10328 10335 10343 10350 10357 10364 10373 10383 10394 10408 10423 10433 10444 10459 10475 10486 10493 10502 10511 10519 10528 10535 10542 10549 10555 10561 10567 10570 10569 10569 10575 10581 10586 10591 10598 10605 10611 10617 10621 10626 10630
10483 10474 10466 10457 10449 10441 10434 10426 10417 10409 10403 10396 10388 10380 10373 10367 10360 10352 10345 10340 10334 10329 10323 10318 10313 10309 10306 10304 10302 10299 10297 10296 10295 10295 10295 10295 10295 10297 10299 10301 10303 10305 10307 10311 10315 10319 10323 10330 10337 10345 10353 10360 10368 10375 10383 10394 10409 10422 10431 10443 10458 10472 10481 10488 10496 10505 10514 10524 10532 10538 10545 10551 10556 10561 10563 10562 10565 10572 10580 10583 10589 10597 10604 10609 10614 10619 10622 10627
10481 10474 10467 10460 10452 10443 10434 10426 10419 10411 10405 10399 10392 10383 10375 10368 10362 10355 10348 10342 10337 10331 10326 10321 10316 10312 10309 10307 10305 10302 10300 10299 10298 10298 10298 10299 10299 10300 10303 10305 10307 10310 10312 10315 10319 10324 10329 10335 10343 10350 10358 10369 10380 10389 10398 10408 10418 10425 10435 10449 10462 10472 10481 10488 10497 10506 10516 10524 10529 10534 10541 10545 10549 10554 10557 10558 10563 10571 10578 10582 10588 10596 10602 10606 10612 10616 10619 10623
10481 10473 10466 10458 10451 10445 10437 10429 10422 10415 10408 10402 10394 10386 10378 10371 10365 10359 10352 10346 10340 10334 10329 10325 10320 10316 10313 10310 10308 10306 10304 10303 10301 10300 10301 10302 10303 10304 10307 10310 10312 10315 10318 10321 10325 10331 10337 10343 10349 10357 10365 10373 10379 10388 10399 10409 10418 10428 10443 10455 10463 10470 10477 10485 10497 10509 10519 10524 10526 10531 10537 10541 10545 10550 10553 10555 10560 10568 10575 10579 10586 10594 10599 10604 10609 10613 10617 10619
10482 10474 10466 10457 10448 10442 10435 10428 10421 10414 10407 10401 10395 10388 10381 10375 10368 10362 10356 10350 10344 10338 10333 10328 10324 10320 10317 10314 10311 10310 10308 10306 10305 10303 10303 10304 10307 10309 10311 10314 10317 10319 10323 10327 10332 10338 10343 10349 10355 10362 10369 10374 10379 10386 10396 10407 10418 10430 10442 10450 10458 10467 10476 10486 10498 10507 10515 10520 10524 10529 10534 10536 10540 10545 10548 10551 10557 10564 10571 10577 10583 10590 10595 10600 10606 10610 10614 10616
10480 10472 10465 10457 10448 10441 10435 10427 10419 10412 10406 10401 10396 10390 10383 10377 10371 10364 10358 10352 10347 10342 10337 10332 10328 10324 10321 10318 10315 10313 10312 10311 10309 10308 10306 10307 10310 10313 10316 10318 10320 10323 10327 10332 10337 10341 10346 10353 10359 10364 10370 10375 10382 10392 10401 10411 10422 10430 10437 10447 10458 10470 10479 10487 10495 10502 10509 10515 10517 10520 10525 10530 10536 10541 10544 10548 10554 10561 10569 10575 10581 10586 10592 10597 10602 10605 10609 10611
10478 10470 10463 10457 10448 10440 10435 10428 10420 10413 10407 10402 10396 10390 10384 10379 10373 10366 10360 10354 10349 10344 10340 10336 10332 10328 10325 10322 10319 10317 10316 10314 10314 10313 10311 10310 10313 10317 10320 10322 10324 10326 10330 10334 10339 10344 10348 10354 10359 10365 10371 10379 10388 10397 10404 10412 10421 10430 10439 10450 10460 10467 10475 10484 10493 10501 10509 10513 10515 10519 10526 10531 10535 10539 10543 10548 10553 10560 10568 10573 10577 10583 10588 10592 10596 10601 10605 10605
10477 10469 10463 10457 10449 10440 10434 10428 10422 10415 10408 10402 10397 10390 10383 10378 10374 10369 10363 10357 10351 10345 10341 10338 10335 10331 10328 10326 10323 10321 10320 10318 10317 10318 10317 10316 10317 10319 10323 10327 10329 10331 10333 10336 10340 10345 10351 10357 10362 10367 10373 10381 10391 10400 10407 10414 10422 10430 10440 10449 10458 10467 10477 10486 10494 10502 10507 10510 10514 10522 10528 10531 10534 10539 10544 10549 10553 10558 10565 10570 10574 10579 10583 10587 10592 10596 10599 10600
10475 10468 10461 10456 10450 10441 10433 10427 10421 10416 10409 10403 10398 10393 10386 10380 10375 10370 10365 10359 10354 10349 10344 10340 10337 10334 10331 10329 10327 10325 10324 10323 10321 10321 10322 10322 10323 10324 10326 10329 10333 10335 10337 10339 10342 10347 10354 10360 10365 10370 10375 10383 10392 10400 10408 10415 10423 10432 10442 10451 10460 10470 10479 10486 10494 10499 10503 10507 10512 10517 10522 10525 10530 10536 10541 10546 10550 10554 10561 10566 10569 10574 10578 10583 10587 10590 10594 10597